Weather History for Pine River, MN

Change the Weather History Date:

Wednesday, December 25, 2013

  Actual Average Record
Temperature  
Mean Temperature 10 °F -  
Max Temperature 19 °F 19 °F 44 °F (1999)
Min Temperature 0 °F 4 °F -27 °F (1996)
Degree Days  
Heating Degree Days 56    
Moisture  
Dew Point 7 °F    
Average Humidity 84    
Maximum Humidity 93    
Minimum Humidity 67    
Precipitation  
Precipitation 0.00 in - - ()
Sea Level Pressure  
Sea Level Pressure 30.04 in    
Wind  
Wind Speed 3 mph (WNW)    
Max Wind Speed 12 mph    
Max Gust Speed 20 mph    
Visibility 7 miles    
Events Snow    
Averages and records for this station are not official NWS values.
T = Trace of Precipitation, MM = Missing Value Source: NWS Daily Summary

Daily Weather History Graph

Daily Weather History Graph

Search for Another Location

Airport:

Trip Planner

Search our weather history database for the weather conditions in past years. The results will help you decide how hot, cold, wet, or windy it might be!

Date:

Astronomy

Dec. 25, 2013 Rise Set
Actual Time 8:01 AM CST 4:34 PM CST
Civil Twilight 7:25 AM CST 5:09 PM CST
Nautical Twilight 6:47 AM CST 5:48 PM CST
Astronomical Twilight 6:10 AM CST 6:25 PM CST
Moon 12:09 AM CST (12/25) 11:57 AM CST (12/25)
Length of Visible Light 9h 43m
Length of Day
8h 33m
Waning Gibbous, 48% of the Moon is Illuminated
Dec 25
Waning Gibbous
Jan 1
New
Jan 7
First Quarter
Jan 15
Full
Jan 23
Last Quarter

Hourly Weather History & Observations

Time (CST) Temp. Windchill Dew Point Humidity Pressure Visibility Wind Dir Wind Speed Gust Speed Precip Events Conditions
12:01 AM 6.8 °F - 3.2 °F 85% 30.05 in 4.0 mi South 2.3 mph - N/A   Overcast
1:21 AM 6.8 °F -0.1 °F 3.2 °F 85% 30.02 in 7.0 mi South 3.5 mph - N/A   Overcast
1:41 AM 6.8 °F - 5.0 °F 92% 30.02 in 7.0 mi South 2.3 mph - N/A   Overcast
2:01 AM 8.6 °F 2.0 °F 5.0 °F 85% 30.01 in 1.2 mi SSE 3.5 mph - N/A   Overcast
3:21 AM 8.6 °F - 6.8 °F 92% 30.01 in 7.0 mi South 2.3 mph - N/A   Overcast
3:41 AM 8.6 °F - 6.8 °F 92% 30.00 in 7.0 mi South 2.3 mph - N/A   Overcast
4:32 AM 8.6 °F - 6.8 °F 92% 30.00 in 4.0 mi Calm Calm - N/A Snow Light Snow
4:33 AM 8.6 °F - 6.8 °F 92% 30.00 in 4.0 mi Calm Calm - N/A Snow Light Snow
4:53 AM 8.6 °F - 6.8 °F 92% 30.00 in 7.0 mi Calm Calm - N/A Snow Light Snow
5:13 AM 8.6 °F 2.0 °F 6.8 °F 92% 30.00 in 7.0 mi SSE 3.5 mph - N/A Snow Light Snow
5:33 AM 10.4 °F - 6.8 °F 85% 30.00 in 5.0 mi Calm Calm - N/A Snow Light Snow
5:52 AM 10.4 °F 4.0 °F 6.8 °F 85% 30.00 in 7.0 mi SE 3.5 mph - N/A Snow Light Snow
6:13 AM 10.4 °F 4.0 °F 6.8 °F 85% 30.00 in 3.0 mi SE 3.5 mph - N/A Snow Light Snow
6:33 AM 10.4 °F - 6.8 °F 85% 30.00 in 7.0 mi Calm Calm - N/A   Overcast
6:53 AM 10.4 °F 4.0 °F 8.6 °F 92% 30.00 in 7.0 mi SE 3.5 mph - N/A   Overcast
7:13 AM 10.4 °F - 8.6 °F 92% 30.00 in 7.0 mi Calm Calm - N/A   Overcast
7:33 AM 10.4 °F - 8.6 °F 92% 30.01 in 7.0 mi Calm Calm - N/A   Overcast
7:53 AM 10.4 °F - 8.6 °F 92% 30.01 in 7.0 mi Calm Calm - N/A   Overcast
8:13 AM 12.2 °F - 8.6 °F 85% 30.01 in 7.0 mi Calm Calm - N/A   Overcast
8:33 AM 12.2 °F - 8.6 °F 85% 30.01 in 5.0 mi Calm Calm - N/A   Overcast
8:52 AM 12.2 °F - 10.4 °F 92% 30.01 in 4.0 mi Calm Calm - N/A Snow Light Snow
9:13 AM 14.0 °F - 10.4 °F 86% 30.01 in 4.0 mi Calm Calm - N/A   Overcast
9:33 AM 15.8 °F 10.2 °F 12.2 °F 86% 30.02 in 3.0 mi West 3.5 mph - N/A Snow Light Snow
9:53 AM 15.8 °F 8.6 °F 14.0 °F 93% 30.03 in 4.0 mi WNW 4.6 mph - N/A Snow Light Snow
10:13 AM 17.6 °F 9.3 °F 15.8 °F 93% 30.03 in 4.0 mi NW 5.8 mph - N/A Snow Light Snow
10:33 AM 17.6 °F 7.3 °F 15.8 °F 93% 30.04 in 3.0 mi NW 8.1 mph - N/A Snow Light Snow
10:53 AM 17.6 °F 9.3 °F 15.8 °F 93% 30.04 in 4.0 mi WNW 5.8 mph - N/A Snow Light Snow
11:13 AM 19.4 °F 8.6 °F 15.8 °F 86% 30.03 in 4.0 mi NW 9.2 mph - N/A Snow Light Snow
11:33 AM 19.4 °F 9.5 °F 15.8 °F 86% 30.03 in 4.0 mi WNW 8.1 mph - N/A Snow Light Snow
11:53 AM 19.4 °F 12.8 °F 15.8 °F 86% 30.02 in 3.0 mi West 4.6 mph - N/A Snow Light Snow
12:13 PM 19.4 °F 9.5 °F 15.8 °F 86% 30.03 in 1.2 mi West 8.1 mph - N/A Snow Light Snow
12:33 PM 19.4 °F 7.9 °F 15.8 °F 86% 30.02 in 2.0 mi NW 10.4 mph - N/A Snow Light Snow
12:53 PM 17.6 °F 5.7 °F 12.2 °F 79% 30.03 in 1.8 mi NNW 10.4 mph 19.6 mph N/A Snow Light Snow
1:13 PM 17.6 °F 5.0 °F 12.2 °F 79% 30.03 in 5.0 mi NNW 11.5 mph 17.3 mph N/A Snow Light Snow
1:33 PM 17.6 °F 6.4 °F 10.4 °F 73% 30.04 in 10.0 mi NW 9.2 mph - N/A Snow Light Snow
1:53 PM 17.6 °F 5.7 °F 10.4 °F 73% 30.04 in 7.0 mi NW 10.4 mph 17.3 mph N/A Snow Light Snow
2:13 PM 15.8 °F 5.1 °F 8.6 °F 73% 30.05 in 10.0 mi WNW 8.1 mph 16.1 mph N/A   Overcast
2:32 PM 15.8 °F 3.4 °F 6.8 °F 68% 30.05 in 10.0 mi NW 10.4 mph 16.1 mph N/A   Mostly Cloudy
2:52 PM 15.8 °F 5.1 °F 6.8 °F 68% 30.06 in 10.0 mi NW 8.1 mph - N/A   Mostly Cloudy
3:13 PM 15.8 °F 4.2 °F 6.8 °F 68% 30.06 in 10.0 mi WNW 9.2 mph - N/A   Overcast
3:33 PM 15.8 °F 2.7 °F 6.8 °F 68% 30.07 in 10.0 mi NW 11.5 mph - N/A   Mostly Cloudy
3:53 PM 12.2 °F -0.2 °F 5.0 °F 73% 30.07 in 10.0 mi NW 9.2 mph - N/A   Scattered Clouds
4:13 PM 12.2 °F 0.7 °F 3.2 °F 67% 30.07 in 10.0 mi NW 8.1 mph - N/A   Clear
4:33 PM 10.4 °F 2.2 °F 3.2 °F 73% 30.07 in 10.0 mi NW 4.6 mph - N/A   Clear
4:52 PM 10.4 °F 2.2 °F 3.2 °F 73% 30.08 in 10.0 mi NW 4.6 mph - N/A   Clear
5:13 PM 8.6 °F 2.0 °F 3.2 °F 79% 30.08 in 10.0 mi NW 3.5 mph - N/A   Clear
5:32 PM 6.8 °F -0.1 °F 1.4 °F 79% 30.09 in 10.0 mi WNW 3.5 mph - N/A   Clear
5:52 PM 8.6 °F - 3.2 °F 79% 30.09 in 10.0 mi Calm Calm - N/A   Scattered Clouds
6:13 PM 6.8 °F - 1.4 °F 79% 30.09 in 10.0 mi Calm Calm - N/A   Mostly Cloudy
6:33 PM 5.0 °F - -0.4 °F 78% 30.09 in 10.0 mi Calm Calm - N/A   Scattered Clouds
6:53 PM 1.4 °F - -0.4 °F 92% 30.09 in 7.0 mi Calm Calm - N/A   Clear
7:13 PM -0.4 °F - -4.0 °F 85% 30.09 in 10.0 mi Calm Calm - N/A   Mostly Cloudy
7:33 PM -0.4 °F - -4.0 °F 85% 30.08 in 10.0 mi Calm Calm - N/A   Overcast
7:53 PM 3.2 °F - 1.4 °F 92% 30.08 in 5.0 mi Calm Calm - N/A Snow Light Snow
8:13 PM 6.8 °F - 3.2 °F 85% 30.07 in 7.0 mi Calm Calm - N/A Snow Light Snow
8:33 PM 8.6 °F 2.0 °F 3.2 °F 79% 30.08 in 7.0 mi WNW 3.5 mph - N/A Snow Light Snow
8:53 PM 8.6 °F - 5.0 °F 85% 30.07 in 5.0 mi Calm Calm - N/A Snow Light Snow
9:13 PM 6.8 °F - 3.2 °F 85% 30.07 in 10.0 mi Calm Calm - N/A Snow Light Snow
9:33 PM 6.8 °F - 3.2 °F 85% 30.07 in 10.0 mi Calm Calm - N/A   Overcast
9:52 PM 6.8 °F - 3.2 °F 85% 30.07 in 10.0 mi Calm Calm - N/A   Overcast
10:13 PM 6.8 °F - 3.2 °F 85% 30.06 in 10.0 mi Calm Calm - N/A   Overcast
10:33 PM 6.8 °F - 3.2 °F 85% 30.06 in 10.0 mi Calm Calm - N/A   Overcast
10:53 PM 6.8 °F - 3.2 °F 85% 30.05 in 10.0 mi Calm Calm - N/A   Overcast
11:12 PM 5.0 °F - 1.4 °F 85% 30.06 in 10.0 mi Calm Calm - N/A   Overcast
11:33 PM 5.0 °F - 1.4 °F 85% 30.06 in 10.0 mi Calm Calm - N/A   Overcast
11:52 PM 5.0 °F - 1.4 °F 85% 30.06 in 10.0 mi Calm Calm - N/A   Overcast